Previsão horária em Ali

Hoje, 29 Novembro, Domingo

Tempo Temperatura Precipitação Vento Pressão Humidade
00:00 0°C° 0 mm 1 m/s 727 mmHg 76%
01:00 -2°C° 0 mm 2 m/s 728 mmHg 75%
02:00 -2°C° 0 mm 2 m/s 728 mmHg 74%
03:00 -3°C° 0 mm 2 m/s 728 mmHg 74%
04:00 -1°C° 0 mm 1 m/s 729 mmHg 74%
05:00 -2°C° 0 mm 1 m/s 729 mmHg 75%
06:00 -2°C° 0 mm 1 m/s 729 mmHg 75%
07:00 -2°C° 0 mm 1 m/s 729 mmHg 76%
08:00 -2°C° 0 mm 1 m/s 729 mmHg 76%
09:00 -3°C° 0 mm 2 m/s 728 mmHg 72%
10:00 -2°C° 0 mm 2 m/s 728 mmHg 69%
11:00 -1°C° 0 mm 2 m/s 727 mmHg 65%
12:00 -1°C° 0 mm 2 m/s 727 mmHg 64%
13:00 +1°C° 0 mm 2 m/s 727 mmHg 62%
14:00 +1°C° 0 mm 2 m/s 727 mmHg 61%
15:00 +1°C° 0 mm 1 m/s 727 mmHg 66%
16:00 0°C° 0 mm 1 m/s 728 mmHg 71%
17:00 -2°C° 0 mm 1 m/s 728 mmHg 76%
18:00 -2°C° 0 mm 1 m/s 728 mmHg 77%
19:00 -3°C° 0 mm 1 m/s 728 mmHg 78%
20:00 -3°C° 0 mm 1 m/s 727 mmHg 78%
21:00 -3°C° 0 mm 1 m/s 727 mmHg 79%
22:00 -5°C° 0 mm 2 m/s 727 mmHg 79%
23:00 -5°C° 0 mm 2 m/s 727 mmHg 79%

Amanhã, 30 Novembro, Segunda-feira

Tempo Temperatura Precipitação Vento Pressão Humidade
00:00 -6°C° 0 mm 2 m/s 727 mmHg 81%
01:00 -4°C° 0 mm 1 m/s 726 mmHg 83%
02:00 -4°C° 0 mm 1 m/s 726 mmHg 85%
03:00 -6°C° 0 mm 1 m/s 726 mmHg 85%
04:00 -6°C° 0 mm 1 m/s 726 mmHg 85%
05:00 -6°C° 0 mm 0 m/s 726 mmHg 85%
06:00 -6°C° 0 mm 0 m/s 726 mmHg 84%
07:00 -6°C° 0 mm 1 m/s 726 mmHg 83%
08:00 -6°C° 0 mm 1 m/s 726 mmHg 82%
09:00 -3°C° 0 mm 1 m/s 726 mmHg 77%
10:00 -2°C° 0 mm 1 m/s 726 mmHg 73%
11:00 -1°C° 0 mm 1 m/s 725 mmHg 69%
12:00 -2°C° 0 mm 2 m/s 725 mmHg 68%
13:00 -2°C° 0 mm 2 m/s 725 mmHg 67%
14:00 -1°C° 0 mm 2 m/s 724 mmHg 66%
15:00 -3°C° 0 mm 2 m/s 724 mmHg 71%
16:00 -4°C° 0 mm 2 m/s 724 mmHg 76%
17:00 -5°C° 0 mm 2 m/s 724 mmHg 81%
18:00 -5°C° 0 mm 2 m/s 724 mmHg 82%
19:00 -5°C° 0 mm 2 m/s 724 mmHg 83%
20:00 -6°C° 0 mm 3 m/s 724 mmHg 84%
21:00 -7°C° 0 mm 4 m/s 724 mmHg 84%
22:00 -7°C° 0 mm 4 m/s 723 mmHg 84%
23:00 -7°C° 0 mm 5 m/s 723 mmHg 84%

Depois de amanhã, 1 Dezembro, Terça-feira

Tempo Temperatura Precipitação Vento Pressão Humidade
00:00 -7°C° 0 mm 5 m/s 723 mmHg 84%
01:00 -8°C° 0 mm 5 m/s 722 mmHg 84%
02:00 -8°C° 0 mm 5 m/s 722 mmHg 84%
03:00 -8°C° 0 mm 4 m/s 722 mmHg 83%
04:00 -8°C° 0 mm 4 m/s 722 mmHg 82%
05:00 -8°C° 0 mm 4 m/s 721 mmHg 81%
06:00 -8°C° 0 mm 4 m/s 721 mmHg 79%
07:00 -8°C° 0 mm 4 m/s 721 mmHg 77%
08:00 -8°C° 0 mm 4 m/s 721 mmHg 74%
09:00 -7°C° 0 mm 4 m/s 720 mmHg 68%
10:00 -5°C° 0 mm 5 m/s 720 mmHg 62%
11:00 -4°C° 0 mm 6 m/s 720 mmHg 56%
12:00 -4°C° 0 mm 5 m/s 720 mmHg 54%
13:00 -2°C° 0 mm 5 m/s 720 mmHg 53%
14:00 -2°C° 0 mm 4 m/s 719 mmHg 51%
15:00 -2°C° 0 mm 3 m/s 720 mmHg 56%
16:00 -3°C° 0 mm 2 m/s 720 mmHg 61%
17:00 -2°C° 0 mm 1 m/s 720 mmHg 67%
18:00 -3°C° 0 mm 1 m/s 720 mmHg 66%
19:00 -3°C° 0 mm 1 m/s 720 mmHg 65%
20:00 -3°C° 0 mm 1 m/s 721 mmHg 65%
21:00 -3°C° 0 mm 1 m/s 721 mmHg 65%
22:00 -3°C° 0 mm 1 m/s 721 mmHg 66%
23:00 -3°C° 0 mm 1 m/s 721 mmHg 66%

2 Dezembro, Quarta-feira

Tempo Temperatura Precipitação Vento Pressão Humidade
00:00 -3°C° 0 mm 1 m/s 720 mmHg 67%
01:00 -4°C° 0 mm 1 m/s 720 mmHg 68%
02:00 -4°C° 0 mm 1 m/s 720 mmHg 69%
03:00 -4°C° 0 mm 1 m/s 720 mmHg 70%
04:00 -4°C° 0 mm 1 m/s 720 mmHg 71%
05:00 -6°C° 0 mm 1 m/s 720 mmHg 72%
06:00 -4°C° 0 mm 1 m/s 720 mmHg 71%
07:00 -4°C° 0 mm 1 m/s 720 mmHg 69%
08:00 -4°C° 0 mm 1 m/s 720 mmHg 68%
09:00 -2°C° 0 mm 1 m/s 720 mmHg 63%
10:00 -3°C° 0 mm 2 m/s 720 mmHg 58%
11:00 -2°C° 0 mm 2 m/s 720 mmHg 54%
12:00 -1°C° 0 mm 3 m/s 719 mmHg 52%
13:00 -1°C° 0 mm 3 m/s 719 mmHg 51%
14:00 0°C° 0 mm 3 m/s 719 mmHg 50%
15:00 -1°C° 0 mm 3 m/s 719 mmHg 52%
16:00 -1°C° 0 mm 3 m/s 719 mmHg 54%
17:00 -2°C° 0 mm 3 m/s 719 mmHg 55%
18:00 -2°C° 0 mm 3 m/s 719 mmHg 61%
19:00 -4°C° 0 mm 3 m/s 719 mmHg 66%
20:00 -4°C° 0 mm 4 m/s 718 mmHg 71%
21:00 -4°C° 0 mm 4 m/s 718 mmHg 72%
22:00 -4°C° 0 mm 4 m/s 718 mmHg 72%
23:00 -5°C° 0 mm 5 m/s 718 mmHg 73%

3 Dezembro, Quinta-feira

Tempo Temperatura Precipitação Vento Pressão Humidade
00:00 -5°C° 0 mm 5 m/s 718 mmHg 73%
01:00 -5°C° 0 mm 5 m/s 717 mmHg 73%
02:00 -4°C° 0 mm 5 m/s 717 mmHg 73%
03:00 -4°C° 0 mm 5 m/s 717 mmHg 72%
04:00 -3°C° 0 mm 4 m/s 717 mmHg 72%
05:00 -3°C° 0 mm 4 m/s 717 mmHg 71%
06:00 -3°C° 0 mm 4 m/s 717 mmHg 68%
07:00 -3°C° 0 mm 4 m/s 717 mmHg 65%
08:00 -3°C° 0 mm 4 m/s 717 mmHg 61%
09:00 -2°C° 0 mm 4 m/s 717 mmHg 59%
10:00 -1°C° 0 mm 4 m/s 717 mmHg 56%
11:00 0°C° 0 mm 5 m/s 716 mmHg 54%
12:00 +1°C° 0 mm 5 m/s 716 mmHg 54%
13:00 +1°C° 0 mm 5 m/s 716 mmHg 54%
14:00 +2°C° 0 mm 6 m/s 716 mmHg 55%
15:00 +1°C° 0 mm 5 m/s 716 mmHg 60%
16:00 0°C° 0 mm 5 m/s 716 mmHg 65%
17:00 -1°C° 0 mm 5 m/s 716 mmHg 70%
18:00 -2°C° 0 mm 4 m/s 716 mmHg 70%
19:00 -2°C° 0 mm 4 m/s 716 mmHg 71%
20:00 -2°C° 0 mm 4 m/s 715 mmHg 72%
21:00 -2°C° 0 mm 4 m/s 715 mmHg 72%
22:00 -2°C° 0 mm 4 m/s 715 mmHg 73%
23:00 -1°C° 0 mm 3 m/s 715 mmHg 73%

4 Dezembro, Sexta-feira

Tempo Temperatura Precipitação Vento Pressão Humidade
00:00 -1°C° 0 mm 3 m/s 715 mmHg 73%
01:00 -1°C° 0 mm 3 m/s 714 mmHg 73%
02:00 -1°C° 0 mm 3 m/s 714 mmHg 73%
03:00 -1°C° 0 mm 3 m/s 714 mmHg 74%
04:00 -2°C° 0 mm 3 m/s 714 mmHg 75%
05:00 -2°C° 0 mm 2 m/s 714 mmHg 76%
06:00 -2°C° 0 mm 2 m/s 714 mmHg 76%
07:00 -1°C° 0 mm 2 m/s 714 mmHg 75%
08:00 +1°C° 0 mm 1 m/s 714 mmHg 75%
09:00 +2°C° 0 mm 1 m/s 714 mmHg 71%
10:00 +3°C° 0 mm 1 m/s 714 mmHg 68%
11:00 +4°C° 0 mm 1 m/s 714 mmHg 64%
12:00 +4°C° 0 mm 1 m/s 714 mmHg 64%
13:00 +5°C° 0 mm 1 m/s 715 mmHg 63%
14:00 +5°C° 0 mm 1 m/s 715 mmHg 63%
15:00 +5°C° 0.1 mm 1 m/s 715 mmHg 67%
16:00 +4°C° 0.1 mm 1 m/s 716 mmHg 72%
17:00 +3°C° 0.1 mm 1 m/s 716 mmHg 76%
18:00 +3°C° 0.2 mm 1 m/s 717 mmHg 83%
19:00 +3°C° 0.2 mm 1 m/s 717 mmHg 90%
20:00 +2°C° 0.2 mm 1 m/s 717 mmHg 97%
21:00 +2°C° 0.2 mm 1 m/s 717 mmHg 97%
22:00 +2°C° 0.2 mm 1 m/s 718 mmHg 97%
23:00 +2°C° 0.2 mm 1 m/s 718 mmHg 97%
Mostrar mais